User: anonymous   Login
Location: Unspecified
(0.0000°N, 0.0000°E)
Time: 19:40:28
(UTC+00:00)
Language:

Saudisat 1A - Orbit

View from above orbital plane
View from above orbital plane
View from above satellite
View from above satellite

Ground track
Ground track

The orbit data is extracted from the following two-line orbital elements,

1 26546U 00057B   22222.38763642  .00001022  00000-0  11511-3 0  9991
2 26546  64.5528 205.9433 0037247 303.3107  56.4438 14.91966346186982
Epoch (UTC): 10 August 2022 09:18:11
Eccentricity: 0.0037247
inclination: 64.5528°
perigee height: 566 km
apogee height: 618 km
right ascension of ascending node: 205.9433°
argument of perigee: 303.3107°
revolutions per day: 14.91966346
mean anomaly at epoch: 56.4438°
orbit number at epoch: 18698

The dashed part of the orbit path shows where the satellite is in the earth's shadow,  

DLR